Regional Weather Roundup
Issued by NWS Northern Indiana

Home | Current Version | Previous Version | Text Only | Print | Product List | Glossary On
Versions: 1 2 3 4 5 6 7 8 9 10 11 12 13 14 15 16 17 18 19 20 21 22 23 24 25 26 27 28 29 30 31 32 33 34 35 36 37 38 39 40 41 42 43 44 45 46 47 48 49 50
000
ASUS43 KIWX 222110
RWRIWX

KIWX WEATHER ROUNDUP
NATIONAL WEATHER SERVICE NORTHERN INDIANA
500 PM EDT TUE JUL 22 2014

NOTE: "FAIR" INDICATES FEW OR NO CLOUDS BELOW 12,000 FEET WITH NO
SIGNIFICANT WEATHER AND/OR OBSTRUCTIONS TO VISIBILITY.

* THESE STATIONS ARE NOT UNDER NWS QUALITY CONTROL. THEY ALSO MAY NOT
  REPORT WEATHER SUCH AS PRECIPITATION OR FOG.

INZ001>027-222200-
NORTHERN INDIANA

CITY           SKY/WX    TMP DP  RH WIND       PRES   REMARKS
GARY*          MOSUNNY   88  70  55 SW12G23   29.95F
VALPARAISO     SUNNY     86  70  58 S16       29.98F
MICHIGAN CITY* SUNNY     86  68  54 S10       29.96F
LAPORTE*       SUNNY     86  68  55 S10G16    29.99S
KNOX*          SUNNY     86  67  52 SW10G17   29.98F
SOUTH BEND     SUNNY     88  67  49 S10       29.98F
ELKHART*       SUNNY     86  64  48 SW10G18   29.99F
GOSHEN         SUNNY     88  67  49 SW13      29.99F
MONTICELLO*    SUNNY     84  71  64 S7        30.00F
LOGANSPORT*    SUNNY     86  66  51 SW10      30.03F
ROCHESTER*     SUNNY     90  68  48 S12       30.01F
WARSAW*        SUNNY     86  66  51 S7        30.01F
ANGOLA*        SUNNY     88  68  51 SW13      30.01F
FORT WAYNE     MOSUNNY   89  66  46 SW14G21   30.03F
HUNTINGTON*    SUNNY     87  67  51 SW10      30.02F
PERU/GRISSOM   SUNNY     87  69  55 SW12      30.02F
MARION*        SUNNY     85  65  49 W9        30.04F

$$
INZ028>050-222200-
CENTRAL INDIANA

CITY           SKY/WX    TMP DP  RH WIND       PRES   REMARKS
LAFAYETTE      SUNNY     85  69  58 S12       30.00F
KOKOMO*        SUNNY     88  66  48 SW13      30.03F
MUNCIE*        MOSUNNY   87  63  44 W9        30.05F
INDIANAPOLIS   MOSUNNY   87  66  49 SW17      30.05F

$$
MIZ043>046-050>051-056>058-064>065-071>073-077>080-222200-
SOUTHWEST LOWER MICHIGAN

CITY           SKY/WX    TMP DP  RH WIND       PRES   REMARKS
BATTLE CREEK   SUNNY     87  67  51 S12       29.99F
BENTON HARBOR  SUNNY     86  67  52 S12       29.95F
COLDWATER*     SUNNY     86  68  54 SW7       30.00F
HILLSDALE*     SUNNY     87  67  51 SW5       30.02F
HOLLAND        MOSUNNY   90  68  48 S14       29.93F
GRAND RAPIDS   MOSUNNY   88  69  53 S14       29.93F
KALAMAZOO      SUNNY     87  67  51 S15       29.99F
STURGIS*       SUNNY     84  70  61 SW13      30.00S
THREE RIVERS*  FAIR      85  72  63 S10       30.00S

$$
OHZ001>008-015>018-024>025-222200-
NORTHWEST OHIO

CITY           SKY/WX    TMP DP  RH WIND       PRES   REMARKS
WAUSEON*         N/A     90  66  45 SW13G20   30.00F
DEFIANCE       MOSUNNY   90  66  45 SW14      30.01F
FINDLAY        MOSUNNY   89  66  46 SW12      30.02F
TOLEDO EXPRESS SUNNY     90  65  43 SW12      30.00F
TOLEDO METCALF SUNNY     91  63  39 SW15G22   30.01F
LIMA           SUNNY     89  64  43 SW15      30.05S

$$
&&


USA.gov is the U.S. government's official web portal to all federal, state and local government web resources and services.